Regional Weather Roundup
Issued by NWS

Home | Current Version | Previous Version | Text Only | Print | Product List | Glossary On
Versions: 1 2 3 4 5 6 7 8 9 10 11 12 13 14 15 16 17 18 19 20 21 22 23 24 25 26 27 28 29 30 31 32 33 34 35 36 37 38 39 40 41 42 43 44 45 46 47 48 49 50
000
ASUS43 KTOP 301808
RWRKS

WEATHER ROUNDUP FOR KANSAS
NATIONAL WEATHER SERVICE GOODLAND KS
1200 PM CST FRI JAN 30 2015

NOTE:  "FAIR" INDICATES FEW OR NO CLOUDS BELOW 12,000 FEET WITH NO
SIGNIFICANT WEATHER AND/OR OBSTRUCTIONS TO VISIBILITY.

KSZ001>006-013>018-027>032-041>047-301900-
NORTHWEST KANSAS

CITY           SKY/WX    TMP DP  RH WIND       PRES   REMARKS
GOODLAND       CLOUDY    46  28  49 S20G29    30.26F
6HR MIN TEMP:  29; 6HR MAX TEMP:  46;

HAYS           CLOUDY    41  23  48 S16G23    30.41F
HILL CITY      CLOUDY    44  24  45 S16       30.38F
6HR MIN TEMP:  19; 6HR MAX TEMP:  44;

RUSSELL        CLOUDY    41  28  60 S13       30.42F
6HR MIN TEMP:  18; 6HR MAX TEMP:  41;

$$

KSZ061>065-074>080-084>089-301900-
SOUTHWEST KANSAS

CITY           SKY/WX    TMP DP  RH WIND       PRES   REMARKS
DODGE CITY     CLOUDY    41  23  48 S18       30.40F
6HR MIN TEMP:  26; 6HR MAX TEMP:  43;

ELKHART          N/A     43  24  47 S15         N/A
GARDEN CITY    CLOUDY    43  25  49 S20       30.36F
6HR MIN TEMP:  28; 6HR MAX TEMP:  43;

LIBERAL        CLOUDY    41  27  56 S15       30.41F
PRATT          CLOUDY    41  27  56 S14       30.46F
$$

KSZ066>073-081>083-090>101-301900-
SOUTHEAST KANSAS

CITY           SKY/WX    TMP DP  RH WIND       PRES   REMARKS
CHANUTE        SUNNY     36  25  64 CALM      30.54F
6HR MIN TEMP:  19; 6HR MAX TEMP:  36;

COFFEYVILLE    MOSUNNY   39  26  59 SE3       30.55F
6HR MIN TEMP:  22; 6HR MAX TEMP:  39;

HUTCHINSON     CLOUDY    41  27  57 S13       30.49F
6HR MIN TEMP:  21; 6HR MAX TEMP:  41;

MEDICINE LODGE   N/A     41  28  60 S10       30.47F
NEWTON         CLOUDY    39  25  56 S9        30.51F
PARSONS        MOSUNNY   37  26  64 S3        30.55F
6HR MIN TEMP:  19; 6HR MAX TEMP:  37;

WICHITA INTL   CLOUDY   N/A N/A N/A SE8       30.50F
6HR MIN TEMP:  24; 6HR MAX TEMP:  38;

WICHITA JABRA  CLOUDY    38  26  62 S7        30.50F
6HR MIN TEMP:  22; 6HR MAX TEMP:  39;

WICHITA MCCONL PTSUNNY   39  26  58 S6        30.51F
WINFIELD       PTSUNNY   40  26  57 E3        30.52F
6HR MIN TEMP:  22; 6HR MAX TEMP:  40;

$$

KSZ007>012-019>026-033>040-048>060-102>105-301900-
NORTHEAST KANSAS

CITY           SKY/WX    TMP DP  RH WIND       PRES   REMARKS
CONCORDIA      CLOUDY    38  27  64 S15       30.46F WCI  29
6HR MIN TEMP:  18; 6HR MAX TEMP:  38;

EMPORIA        MOSUNNY   36  25  64 CALM      30.52F
6HR MIN TEMP:  19; 6HR MAX TEMP:  36;

LAWRENCE       PTSUNNY   33  21  61 CALM      30.55F
6HR MIN TEMP:  14; 6HR MAX TEMP:  33;

MANHATTAN      CLOUDY    36  28  73 CALM      30.52F
6HR MIN TEMP:  15; 6HR MAX TEMP:  36;

MARYSVILLE     PTSUNNY   36  27  69 S8        30.49F
OLATHE IND     MOSUNNY   34  22  61 VRB5      30.54F
6HR MIN TEMP:  17; 6HR MAX TEMP:  34; 6HR PCP: TRACE;

OLATHE EXE     MOSUNNY   33  18  53 VRB3      30.52F
6HR MIN TEMP:  21; 6HR MAX TEMP:  34;

SALINA         PTSUNNY   42  27  55 S12       30.49F
6HR MIN TEMP:  20; 6HR MAX TEMP:  42;

TOPEKA BILLARD PTSUNNY   34  23  64 VRB5      30.54F
6HR MIN TEMP:  16; 6HR MAX TEMP:  34;

TOPEKA FORBES  PTSUNNY   34  23  64 S7        30.53F
6HR MIN TEMP:  16; 6HR MAX TEMP:  34;

$$



USA.gov is the U.S. government's official web portal to all federal, state and local government web resources and services.